Location: New Plymouth
(39.0670°S, 174.0830°E)
Time: 16:05:31
(UTC+12:00)

NOAA 19 - Pass Details

Date: 25 August 2019
Orbit: 840 x 862 km, 99.2° (Epoch: 21 September)

Event Time Altitude Azimuth Distance (km) Brightness Sun altitude
Rises 05:50:46 0° 345° (NNW) 3,385 8.2 -13.7°
Reaches altitude 10° 05:53:26 10° 334° (NNW) 2,460 7.4 -13.2°
Maximum altitude 05:58:02 28° 276° (W) 1,562 6.0 -12.3°
Drops below altitude 10° 06:02:42 10° 218° (SW) 2,494 7.3 -11.4°
Sets 06:05:28 0° 206° (SSW) 3,440 8.1 -10.9°
